This is the latest recevied weather packets stored in our database for station/object SR5MRF. If no packets are shown the sender has not sent any weather packets the latest 1 day(s).
| Time | Temp. | Humidity | Pressure | Rain* | Wind** | Luminosity | Snow |
|---|---|---|---|---|---|---|---|
| 1777984661 | 27.78° C | 29% | 1004.9 hPa | 0 mm | 0 m/s | - | - |
| 1777984241 | 27.78° C | 30% | 1005 hPa | 0 mm | 0 m/s | - | - |
| 1777984122 | 27.78° C | 30% | 1005 hPa | 0 mm | 0 m/s | - | - |
| 1777983821 | 27.78° C | 29% | 1005.1 hPa | 0 mm | 0 m/s | - | - |
| 1777983521 | 28.33° C | 29% | 1005.1 hPa | 0 mm | 0 m/s | - | - |
| 1777983401 | 28.33° C | 29% | 1005.1 hPa | 0 mm | 0 m/s | - | - |
| 1777982981 | 28.33° C | 29% | 1005.2 hPa | 0 mm | 0 m/s | - | - |
| 1777982921 | 28.33° C | 29% | 1005.2 hPa | 0 mm | 0 m/s | - | - |
| 1777982561 | 28.33° C | 29% | 1005.2 hPa | 0 mm | 0 m/s | - | - |
| 1777982321 | 28.33° C | 29% | 1005.3 hPa | 0 mm | 0 m/s | - | - |
| 1777982141 | 28.89° C | 29% | 1005.3 hPa | 0 mm | 0 m/s | - | - |
| 1777981721 | 28.89° C | 29% | 1005.5 hPa | 0 mm | 0 m/s | - | - |
| 1777981301 | 29.44° C | 29% | 1005.5 hPa | 0 mm | 0 m/s | - | - |
| 1777981122 | 29.44° C | 29% | 1005.5 hPa | 0 mm | 0 m/s | - | - |
| 1777980881 | 29.44° C | 28% | 1005.6 hPa | 0 mm | 0 m/s | - | - |
| 1777980461 | 29.44° C | 29% | 1005.5 hPa | 0 mm | 0 m/s | - | - |
| 1777980041 | 30° C | 29% | 1005.6 hPa | 0 mm | 0 m/s | - | - |
| 1777979922 | 30° C | 29% | 1005.6 hPa | 0 mm | 0 m/s | - | - |
| 1777979621 | 30° C | 29% | 1005.7 hPa | 0 mm | 0 m/s | - | - |
| 1777979322 | 30° C | 29% | 1005.6 hPa | 0 mm | 0 m/s | - | - |
| 1777979201 | 30° C | 29% | 1005.6 hPa | 0 mm | 0 m/s | - | - |
| 1777978781 | 30.56° C | 30% | 1005.6 hPa | 0 mm | 0 m/s | - | - |
| 1777978722 | 30.56° C | 30% | 1005.7 hPa | 0 mm | 0 m/s | - | - |
| 1777978361 | 30° C | 30% | 1005.9 hPa | 0 mm | 0 m/s | - | - |
| 1777978122 | 30.56° C | 30% | 1005.9 hPa | 0 mm | 0 m/s | - | - |
* Rain latest hour (hover to see other rain measurements)
** Current wind speed in m/s (hover to see current wind gust speed)